Weather in Uspenka

Russia / Astrakhan Oblast     48°12′05″N   46°15′56″E
temp.,
°C
wind,
m/s
gust,
m/s
humid.,
%
clouds,
%
prec.,
mm/h
press.,
hPa
HPBL,
m
27 october, wed
wed2701:00+2wsw33600 0.0 103328
04:00+1wsw23641 0.0 103323
07:000sw23675 0.0 103320
10:00+4ssw34525 0.0 1033294
13:00+8sw44385 0.0 1031847
16:00+9ssw44345 0.0 1029929
19:00+6s34445 0.0 102867
22:00+5ssw46504 0.0 1028103
28 october, thu
thu2801:00+3s48570 0.0 1027137
04:00+3ssw36730 0.0 102693
07:00+2ssw46850 0.0 1025101
10:00+6ssw46690 0.0 1025313
13:00+10sw56494 0.0 1024893
16:00+12sw454687 0.0 10221123
19:00+8wsw2260100 0.0 102220
22:00+7sw2268100 0.0 102116
29 october, fri
fri2901:00+7wsw2272100 0.0 102123
04:00+7wnw3358100 0.0 102143
07:00+6w3347100 0.0 102143
10:00+9wnw343989 0.0 1023266
13:00+9nw4450100 0.0 1023363
16:00+8nw3375100 0.0 1025287
19:00+8n3577100 0.0 1027317
22:00+8nne5782100 0.0 1028355
30 october, sat
sat3001:00+8ne5778100 0.0 1030372
04:00+7ne577696 0.0 1031349
07:00+5nne478751 0.0 1033203
10:00+7ne56745 0.0 1035327
13:00+11ne44571 0.0 1034686
16:00+12ne33530 0.0 1034869
19:00+9ne34640 0.0 103565
22:00+7ne35700 0.0 103573
31 october, sun
sun3101:00+6ene34770 0.0 103549
04:00+6ene34770 0.0 103546
07:00+5ene45790 0.0 103574
10:00+9e46620 0.0 1035248
13:00+13e56430 0.0 1034812
16:00+14ese56390 0.0 10331122
19:00+11e47500 0.0 1033111
22:00+9e49540 0.0 1033157